Regional Weather Roundup
Issued by NWS Wakefield, VA

Home | Current Version | Previous Version | Text Only | Print | Product List | Glossary On
Versions: 1 2 3 4 5 6 7 8 9 10 11 12 13 14 15 16 17 18 19 20 21 22 23 24 25 26 27 28 29 30 31 32 33 34 35 36 37 38 39 40 41 42 43 44 45 46 47 48 49 50
558
ASUS41 KAKQ 301515
RWRAKQ

REGIONAL WEATHER ROUNDUP
NATIONAL WEATHER SERVICE WAKEFIELD VA
1100 AM EDT THU MAR 30 2017

Note: "fair" indicates few or no clouds below 12,000 feet with no
significant weather and/or obstructions to visibility. * = Denotes
station may not report precipitation (e.g., rain,snow,etc.),
thunder or fog.

VAZ042-051-052>054-056-301600-
NORTHERN VIRGINIA

CITY           SKY/WX    TMP DP  RH WIND       PRES   REMARKS
WASH NATIONAL  CLOUDY    50  31  48 E5        30.26F
DULLES         CLOUDY    48  30  49 SE8       30.24S
FORT BELVOIR   CLOUDY    49  30  47 E6        30.25S
QUANTICO       CLOUDY    51  35  54 SE5       30.26S
FREDERICKSBRG* PTSUNNY   50  35  55 E7        30.24F
STAFFORD*      CLOUDY    50  34  55 E9        30.28S
WARRENTON      CLOUDY    51  28  40 SE9       30.23F
CULPEPER*      CLOUDY    50  32  50 SE3       30.24F
MANASSAS*      CLOUDY    49  31  49 SE8       30.24F
LEESBURG*      CLOUDY    48  32  53 SE9       30.24F
WINCHESTER     CLOUDY    45  30  57 E7        30.20F
FRONT ROYAL*   CLOUDY    48  32  53 SE7       30.18S
LURAY*         CLOUDY    50  34  53 S8        30.18S
$$

VAZ048-049-060>072-079>083-301600-
CENTRAL AND SOUTH CENTRAL VIRGINIA

CITY           SKY/WX    TMP DP  RH WIND       PRES   REMARKS
RICHMOND       CLOUDY    51  38  60 E8        30.23F
CHESTERFIELD*  CLOUDY   N/A N/A N/A E7        30.24F
PETERSBURG*    CLOUDY    50  39  66 E7        30.24S
HANOVER        CLOUDY    51  33  50 SE7       30.25S
TAPPAHANNOCK*  CLOUDY    52  30  42 E9        30.25S
QUINTON*       CLOUDY    51  39  64 SE7G22    30.23F
CHARLOTTSVILLE CLOUDY    51  33  50 VRB5      30.22S
GORDONSVILLE*  CLOUDY    50  33  51 E3        30.22S
ORANGE*        CLOUDY    48  32  53 E5        30.24S
LOUISA*        CLOUDY    54  37  54 E7        30.22S
BUMPASS*       CLOUDY    50  33  52 S9        30.23F
FARMVILLE*     CLOUDY    54  39  58 SE7       30.20F
CREWE*         CLOUDY    50  40  67 E6        30.21S
FORT PICKETT*  CLOUDY    50  35  55 E8        30.22S
CHASE CITY*    CLOUDY    53  44  71 E8        30.20S
CLARKSVILLE*   CLOUDY    54  46  76 E6        30.19F
SOUTH HILL*    CLOUDY    52  43  72 NE5       30.27S
LAWRENCEVILLE* CLOUDY    51  41  69 E6        30.21F
EMPORIA*       CLOUDY    52  41  66 E6        30.24S
$$

VAZ088>098-301600-
SOUTHEAST VIRGINIA

CITY           SKY/WX    TMP DP  RH WIND       PRES   REMARKS
NORFOLK        PTSUNNY   55  44  66 E10       30.23R
VIRGINIA BEACH PTSUNNY   52  40  63 E13       30.23R
NORFOLK NAVAL  PTSUNNY   54  43  66 E13       30.25R
WEST POINT*    PTSUNNY   54  40  59 E9        30.26S
SALUDA*        CLOUDY    49  43  82 E7        30.26R
NEWPORT NEWS   CLOUDY    52  44  74 E13       30.25R
LANGLEY AFB    MOSUNNY   52  43  72 E10       30.25R
FORT EUSTIS    PTSUNNY   57  44  60 E9        30.20F
WILLIAMSBURG*  MOSUNNY   57  46  67 CALM      30.24F
HR EXEC AP*    CLOUDY    57  43  58 SE6       30.21F
FRANKLIN*      CLOUDY    54  40  59 SE7       30.23F
US460-WAKEFLD  CLOUDY    54  42  64 VRB7      30.23S
$$

VAZ020-022-025-037-045-301600-
WEST CENTRAL AND SOUTHWEST VIRGINIA

CITY           SKY/WX    TMP DP  RH WIND       PRES   REMARKS
STAUNTON*      CLOUDY    47  33  58 S7        30.20S
WAYNESBORO*    CLOUDY    46  35  66 SE7       30.18S
HOT SPRINGS VA RAIN      39  39 100 SE6       30.13R VSB 1/4
LYNCHBURG      CLOUDY    51  38  60 NE8       30.20S
DANVILLE       CLOUDY    55  46  71 E8        30.17S
SOUTH BOSTON*  CLOUDY    54  45  72 E7        30.19F
MARTINSVILLE   DRIZZLE   51  49  94 SE5       30.19R
ROANOKE        CLOUDY    51  42  71 SE7       30.19S
BLACKSBURG     CLOUDY    47  46  99 E8        30.17R FOG
DUBLIN*        LGT RAIN  50  49  97 E10       30.13S
MARION*        CLOUDY    59  54  82 E8        30.11R
HILLSVILLE*    CLOUDY    53  52  97 SE7       30.11S
RICHLANDS*     FAIR      66  52  61 SE5       30.03S
WISE*          MOSUNNY   66  50  55 S13G23    30.00S
ABINGDON*      SUNNY     69  53  56 S9        30.02S
$$

MDZ021>025-VAZ099-100-301600-
SOUTHERN MARYLAND AND THE DELMARVA PENINSULA

CITY           SKY/WX    TMP DP  RH WIND       PRES   REMARKS
PATUXENT RIVER CLOUDY    47  38  71 E8        30.26F
BAY BRIDGE APT CLOUDY    45  28  53 E6        30.27S
LEONARDTOWN    CLOUDY    45  32  61 E6        30.26F
DOVER          PTSUNNY   46  31  56 E9        30.26R
GEORGETOWN     PTSUNNY   49  29  46 E8        30.27S
EASTON         CLOUDY    48  28  46 SE7       30.29F
CAMBRIDGE      PTSUNNY   48  30  49 NE6G14    30.26F
SALISBURY      PTSUNNY   49  35  58 E8        30.26S
OCEAN CITY     PTSUNNY   48  34  58 E8        30.28R
WALLOPS ISLAND CLOUDY    48  38  68 NE14      30.27S
ACCOMACK*      CLOUDY    49  38  66 E7        30.25S
$$

NCZ012>017-030>032-301600-
NORTH CENTRAL AND EASTERN NORTH CAROLINA

CITY           SKY/WX    TMP DP  RH WIND       PRES   REMARKS
ROANOKE RAPIDS CLOUDY    54  43  66 E7        30.21S
RALEIGH        CLOUDY    58  42  55 E9        30.18R
ELIZABETH CITY SUNNY     57  45  64 E13       30.22F
AHOSKIE*         N/A     52  43  70 E5        30.23R HAZE
EDENTON*       CLOUDY    57  46  67 E8        30.22F
CURRITUCK*     PTSUNNY   55  43  62 E10       30.23F
KILL DEVIL HLS NOT AVBL
MANTEO         CLOUDY    55  45  69 E13G21    30.23R
CAPE HATTERAS  MOSUNNY   61  48  62 NE14G23   30.20R
TARBORO*       NOT AVBL
GOLDSBORO      CLOUDY    58  45  61 E12       30.16F
WASHINGTON     MOSUNNY   56  45  67 E9        30.21R
GREENVILLE     CLOUDY    59  43  55 E8        30.21S
NEW BERN       PTSUNNY   61  45  55 E8        30.19S
WILMINGTON     SUNNY     66  49  54 E13G21    30.15R
$$

VAZ048-301600-
ELSEWHERE

CITY           SKY/WX    TMP DP  RH WIND       PRES   REMARKS
HARRISBURG PA  CLOUDY    46  29  51 SE6       30.24F
BALTIMORE      CLOUDY    44  28  53 SE8       30.26F
ANNAPOLIS      CLOUDY    45  30  55 E6        30.27F
ANDREWS AFB    PTSUNNY   47  31  51 VRB6      30.24F
PHILADELPHIA   CLOUDY    45  23  42 E6        30.27F
HENDERSON NC   CLOUDY    53  39  59 E8        30.19S
GREENSBORO     CLOUDY    57  42  57 SE10      30.14S
ROCKY MOUNT    CLOUDY    56  45  66 E7        30.20S
$$

VAZ100-301600-
MARINE

STATION/POSITION TIME  TEMP    WIND        PRES    WAVE   SWELL
                       AIR SEA DIR/SP/G            HT/PER HT/PER
                 (UTC) (F)     (DEG/KT/KT) (MB)    (FT/S) (FT/S)
CAPE MAY NJ      1448   44 47  110/  9/ 11 1024.9R
LEWES DE         1448   43 47  100/ 11/ 13 1025.4R
OCEAN-CITY-INLET 1448   45 45   90/  6/  9 1025.7R
WACHAPREAGUE VA  1448   47 54   70/ 12/ 15 1024.3R
THOMAS POINT MD  1500   44 48   90/  6/  7   N/A
GOOSES REEF MD   1450   46     140/  4/  4 1025.5F
COVE POINT MD    1448   46     150/  2/  4 1025.1F
SOLOMONS ISLAND  1448   45 49  100/  5/  7   N/A
BISHOPS HEAD MD  1448   47 53   80/  6/ 11 1024.8F
PINEY POINT MD   1448          110/ 10/ 11   N/A
POTOMAC MD       1450   45     120/ 10/ 12 1023.8F
CAMBRIDGE MD     1448   46 50   90/  7/ 10 1024.0F
LEWISETTA VA     1448   45 52  110/ 10/ 12 1024.4F
RAPPAHANNOCK LGT 1448           80/ 12/ 14 1024.9S
STINGRAY PT      1450   47     120/ 10/ 12 1024.9R
YORK RVR RNG VA  1448   50     100/ 10/ 11 1023.7R
YORKTOWN VA      1448   49 52   80/ 11/ 13 1024.2R
JAMESTOWN VA     1450   51      90/  6/ 12   N/A
DOMINION TERM VA 1448   49      70/ 12/ 16 1024.2R
KIPTOPEKE VA     1448      51   80/ 11/ 17   N/A
CAPE HENRY VA    1448   49      70/ 15/ 17   N/A
WILLOUBY STN VA  1448   48      80/ 12/ 14 1025.1R
S CRANEY ISL VA  1448   51      60/  8/ 10 1023.6R
CAPE HENRY BUOY  1442      51                N/A     4/ 8   2/11
CAPE CHARLES BUO 1451      50                N/A     3/10   2/15
OFFSHORE WE BUOY 1451      48                N/A     4/10   2/11
64NM E OF VA BCH 1450   51 51   70/ 14/ 17 1022.9F   5/10   3/10
DUCK PIER NC     1448   50 50   60/ 11/ 15 1023.0F
44100 DUCK FRF   1405      51                N/A     5/ 8   2/11
44056 DUCK FRF   1430      50                N/A     4/ 9   2/11
OREGON INLET NC  1442   52 54   10/ 10/ 14 1023.2R
HATTERAS NC      1448   56 60   30/  9/ 13 1022.3R
DIAMOND SHLS NC  1450   63 77   40/ 16/ 19 1021.7R   7/ 9   5/ 9
CAPE LOOKOUT NC  1400   60      40/ 16/ 17 1021.1R
$$




USA.gov is the U.S. government's official web portal to all federal, state and local government web resources and services.